Location: Caltech
(34.1382°N, 118.1253°W)
Time: 09:25:12
(UTC-07:00)

Iridium 49 - Visible Passes

Search period start: 28 July 2014 00:00
Search period end: 07 August 2014 00:00
Orbit: 776 x 779 km, 86.4° (Epoch: 28 July)

Date Brightness Start Highest point End Pass type
(mag) Time Alt. Az. Time Alt. Az. Time Alt. Az.
28 Jul 6.2 03:03:57 66° N 03:03:57 66° N 03:08:25 10° N visible
29 Jul 7.1 02:30:44 40° NE 02:30:44 40° NE 02:34:41 10° NNE visible
29 Jul 7.8 04:11:13 16° WNW 04:11:13 16° WNW 04:13:52 10° NW visible
30 Jul 8.0 01:57:31 22° ENE 01:57:31 22° ENE 02:00:30 10° NNE visible
30 Jul 7.2 03:38:00 29° WNW 03:38:00 29° WNW 03:41:30 10° NNW visible
31 Jul 8.7 01:24:17 11° ENE 01:24:17 11° ENE 01:25:08 10° ENE visible
31 Jul 6.8 03:04:46 43° NNW 03:04:46 43° NNW 03:08:26 10° N visible
01 Aug 7.1 02:31:31 41° NNE 02:31:31 41° NNE 02:34:57 10° N visible
02 Aug 7.8 01:58:16 27° NE 01:58:16 27° NE 02:01:04 10° NNE visible
02 Aug 7.8 03:38:45 18° NW 03:38:45 18° NW 03:41:02 10° NNW visible
03 Aug 8.5 01:25:00 15° NE 01:25:00 15° NE 01:26:34 10° NE visible
03 Aug 7.5 03:05:29 28° NW 03:05:29 28° NW 03:08:19 10° NNW visible
04 Aug 7.4 02:32:12 34° N 02:32:12 34° N 02:35:04 10° N visible
05 Aug 7.8 01:58:55 28° NNE 01:58:55 28° NNE 02:01:25 10° NNE visible
05 Aug 8.3 03:39:24 12° NW 03:39:24 12° NW 03:40:05 10° NW visible
06 Aug 8.4 01:25:38 18° NE 01:25:38 18° NE 01:27:21 10° NNE visible
06 Aug 8.0 03:06:07 19° NW 03:06:07 19° NW 03:08:00 10° NNW visible
